Location: Blangy-Tronville
(49.8790°N, 2.4226°E)
Time: 08:34:52
(UTC+00:00)

Cosmos 220 Rocket - Pass Details

Date: 18 November 2025
Orbit: 541 x 577 km, 74.0° (Epoch: 13 December)

Event Time Altitude Azimuth Distance (km) Brightness Sun altitude
Rises 18:05:33 0° 340° (NNW) 2,748 7.6 -19.5°
Reaches altitude 10° 18:07:48 10° 346° (NNW) 1,855 6.6 -19.8°
Enters shadow 18:11:09 44° 30° (NNE) 787 4.3 -20.4°
